TimeEDT,TemperatureF,Dew PointF,Humidity,Sea Level PressureIn,VisibilityMPH,Wind Direction,Wind SpeedMPH,Gust SpeedMPH,PrecipitationIn,Events,Conditions,WindDirDegrees,DateUTC
12:54 AM,43.0,41.0,93,30.07,5.0,Calm,Calm,-,N/A,,Clear,0,2013-10-04 04:54:00
1:54 AM,43.0,42.1,97,30.07,10.0,Calm,Calm,-,N/A,,Clear,0,2013-10-04 05:54:00
2:23 AM,42.8,41.0,93,30.07,1.8,Calm,Calm,-,N/A,,Clear,0,2013-10-04 06:23:00
2:28 AM,42.8,41.0,93,30.07,2.0,Calm,Calm,-,N/A,,Partly Cloudy,0,2013-10-04 06:28:00
2:39 AM,42.8,41.0,93,30.06,5.0,Calm,Calm,-,N/A,,Clear,0,2013-10-04 06:39:00
2:43 AM,41.0,39.2,93,30.06,1.8,Calm,Calm,-,N/A,,Partly Cloudy,0,2013-10-04 06:43:00
2:45 AM,41.0,39.2,93,30.06,1.0,Calm,Calm,-,N/A,,Mist,0,2013-10-04 06:45:00
2:52 AM,42.8,41.0,93,30.06,0.5,Calm,Calm,-,N/A,Fog,Fog,0,2013-10-04 06:52:00
2:54 AM,42.1,41.0,96,30.06,0.5,Calm,Calm,-,N/A,Fog,Fog,0,2013-10-04 06:54:00
3:12 AM,41.0,39.2,93,30.06,1.5,Calm,Calm,-,N/A,,Mostly Cloudy,0,2013-10-04 07:12:00
3:15 AM,41.0,39.2,93,30.06,2.5,Calm,Calm,-,N/A,,Scattered Clouds,0,2013-10-04 07:15:00
3:24 AM,42.8,39.2,87,30.06,1.2,Calm,Calm,-,N/A,,Scattered Clouds,0,2013-10-04 07:24:00
3:28 AM,42.8,41.0,93,30.06,2.0,Calm,Calm,-,N/A,,Scattered Clouds,0,2013-10-04 07:28:00
3:37 AM,42.8,41.0,93,30.06,6.0,Calm,Calm,-,N/A,,Partly Cloudy,0,2013-10-04 07:37:00
3:54 AM,41.0,39.0,93,30.07,7.0,Calm,Calm,-,N/A,,Partly Cloudy,0,2013-10-04 07:54:00
4:08 AM,41.0,39.2,93,30.07,2.0,Calm,Calm,-,N/A,,Clear,0,2013-10-04 08:08:00
4:17 AM,41.0,39.2,93,30.07,10.0,Calm,Calm,-,N/A,,Clear,0,2013-10-04 08:17:00
4:54 AM,41.0,39.0,93,30.07,10.0,Calm,Calm,-,N/A,,Clear,0,2013-10-04 08:54:00
5:31 AM,39.2,37.4,93,30.08,3.0,Calm,Calm,-,N/A,,Partly Cloudy,0,2013-10-04 09:31:00
5:33 AM,39.2,37.4,93,30.07,1.8,Calm,Calm,-,N/A,,Partly Cloudy,0,2013-10-04 09:33:00
5:35 AM,39.2,37.4,93,30.07,1.0,Calm,Calm,-,N/A,,Mist,0,2013-10-04 09:35:00
5:42 AM,39.2,39.2,100,30.08,0.5,NW,3.5,-,N/A,Fog,Fog,310,2013-10-04 09:42:00
5:54 AM,39.9,39.0,97,30.09,0.5,Calm,Calm,-,N/A,Fog,Fog,0,2013-10-04 09:54:00
6:04 AM,39.2,39.2,100,30.08,1.0,Calm,Calm,-,N/A,,Mist,0,2013-10-04 10:04:00
6:11 AM,39.2,39.2,100,30.08,0.5,Calm,Calm,-,N/A,Fog,Fog,0,2013-10-04 10:11:00
6:19 AM,39.2,39.2,100,30.09,0.2,Calm,Calm,-,N/A,Fog,Fog,0,2013-10-04 10:19:00
6:54 AM,39.0,39.0,100,30.11,0.5,Calm,Calm,-,N/A,Fog,Fog,0,2013-10-04 10:54:00
7:13 AM,39.2,39.2,100,30.10,2.0,Calm,Calm,-,N/A,,Partly Cloudy,0,2013-10-04 11:13:00
7:20 AM,39.2,39.2,100,30.10,10.0,Calm,Calm,-,N/A,,Clear,0,2013-10-04 11:20:00
7:27 AM,39.2,39.2,100,30.10,10.0,Calm,Calm,-,N/A,,Partly Cloudy,0,2013-10-04 11:27:00
7:44 AM,44.6,42.8,93,30.10,4.0,Calm,Calm,-,N/A,,Mostly Cloudy,0,2013-10-04 11:44:00
7:48 AM,44.6,42.8,93,30.10,1.8,Calm,Calm,-,N/A,,Mostly Cloudy,0,2013-10-04 11:48:00
7:54 AM,45.0,44.1,97,30.11,1.0,Calm,Calm,-,N/A,,Mist,0,2013-10-04 11:54:00
8:00 AM,44.6,44.6,100,30.10,2.0,Calm,Calm,-,N/A,,Overcast,0,2013-10-04 12:00:00
8:08 AM,46.4,44.6,93,30.10,10.0,Calm,Calm,-,N/A,,Mostly Cloudy,0,2013-10-04 12:08:00
8:17 AM,46.4,46.4,100,30.11,10.0,Calm,Calm,-,N/A,,Scattered Clouds,0,2013-10-04 12:17:00
8:54 AM,53.1,48.0,83,30.12,10.0,Calm,Calm,-,N/A,,Clear,0,2013-10-04 12:54:00
9:54 AM,62.1,50.0,65,30.12,10.0,Calm,Calm,-,N/A,,Clear,0,2013-10-04 13:54:00
10:54 AM,64.9,50.0,58,30.10,10.0,Calm,Calm,-,N/A,,Clear,0,2013-10-04 14:54:00
11:54 AM,66.9,50.0,54,30.09,10.0,Calm,Calm,-,N/A,,Clear,0,2013-10-04 15:54:00
12:54 PM,66.9,48.9,52,30.08,10.0,Calm,Calm,-,N/A,,Clear,0,2013-10-04 16:54:00
1:54 PM,66.9,51.1,57,30.06,10.0,Calm,Calm,-,0.00,,Mostly Cloudy,0,2013-10-04 17:54:00
2:54 PM,69.1,46.9,45,30.04,10.0,Calm,Calm,-,N/A,,Clear,0,2013-10-04 18:54:00
3:54 PM,68.0,53.1,59,30.05,10.0,SW,3.5,-,N/A,,Mostly Cloudy,220,2013-10-04 19:54:00
4:54 PM,66.9,53.1,61,30.05,10.0,Calm,Calm,-,N/A,,Mostly Cloudy,0,2013-10-04 20:54:00
5:54 PM,64.9,59.0,81,30.05,10.0,Calm,Calm,-,N/A,,Overcast,0,2013-10-04 21:54:00
6:54 PM,62.1,57.9,86,30.06,10.0,Calm,Calm,-,N/A,,Scattered Clouds,0,2013-10-04 22:54:00
7:54 PM,57.9,57.0,97,30.07,10.0,Calm,Calm,-,N/A,,Partly Cloudy,0,2013-10-04 23:54:00
8:54 PM,55.0,53.1,93,30.07,10.0,Calm,Calm,-,N/A,,Clear,0,2013-10-05 00:54:00
9:54 PM,53.1,52.0,96,30.09,10.0,Calm,Calm,-,N/A,,Scattered Clouds,0,2013-10-05 01:54:00
10:54 PM,54.0,53.1,97,30.09,10.0,Calm,Calm,-,N/A,,Overcast,0,2013-10-05 02:54:00
11:54 PM,55.9,54.0,93,30.10,10.0,Calm,Calm,-,N/A,,Overcast,0,2013-10-05 03:54:00